FW7777 Weather Reports


time (UTC)temp
F
wind
direction
speed
knots
gust
knots
rain 1hr
in
rain 24hr
in
rain mn
in
humidity
%
barometer
mb
20260507093405 78 0.0 0.0 0.00 0.00 0.00 100 1011.8
20260507092905 78 0.0 0.0 0.00 0.00 0.00 100 1011.8
20260507092404 79 0.0 0.0 0.00 0.00 0.00 100 1011.7
20260507091905 79 0.0 0.0 0.00 0.00 0.00 100 1011.8
20260507091405 79 0.0 0.0 0.00 0.00 0.00 100 1011.7
20260507090905 79 0.0 0.0 0.00 0.00 0.00 100 1011.8
20260507090418 77 0.0 0.0 0.00 0.00 0.00 100 1011.8
20260507084904 75 0.0 0.0 0.00 0.00 0.00 100 1011.9
20260507084405 75 0.0 0.0 0.00 0.00 0.00 100 1011.9
20260507083905 76 0.0 0.0 0.00 0.00 0.00 100 1011.8
20260507083405 78 0.0 0.0 0.00 0.00 0.00 100 1011.7
20260507082905 79 0.0 0.0 0.00 0.00 0.00 100 1011.7
20260507082404 78 0.0 0.0 0.00 0.00 0.00 100 1011.7
20260507081904 78 0.0 0.0 0.00 0.00 0.00 100 1011.6
20260507081405 77 0.0 0.0 0.00 0.00 0.00 100 1011.7
20260507080905 78 0.0 0.0 0.00 0.00 0.00 100 1011.6
20260507080405 76 0.0 0.0 0.00 0.00 0.00 100 1011.7
20260507075904 75 0.0 0.0 0.00 0.00 0.00 100 1011.7
20260507075405 74 0.0 0.0 0.00 0.00 0.00 100 1011.7
20260507074904 75 0.0 0.0 0.00 0.00 0.00 100 1011.7
20260507074405 76 0.0 0.0 0.00 0.00 0.00 100 1011.5
20260507073905 78 0.0 0.0 0.00 0.00 0.00 100 1011.4
20260507073404 78 0.0 0.0 0.00 0.00 0.00 100 1011.3
20260507072904 77 0.0 0.0 0.00 0.00 0.00 100 1011.3
20260507072405 76 0.0 0.0 0.00 0.00 0.00 100 1011.5
20260507071906 76 0.0 0.0 0.00 0.00 0.00 100 1011.5
20260507071407 76 0.0 0.0 0.00 0.00 0.00 100 1011.5
20260507070904 75 0.0 0.0 0.00 0.00 0.00 100 1011.7
20260507070404 74 0.0 0.0 0.00 0.00 0.00 100 1011.6
20260507065909 75 0.0 0.0 0.00 0.00 0.00 100 1011.5
20260507064403 71 0.0 0.0 0.00 0.00 0.00 100 1011.9
20260507063909 71 0.0 0.0 0.00 0.00 0.00 100 1011.9
20260507062410 69 0.0 0.0 0.00 0.00 0.00 100 1011.9
20260507061405 68 0.0 0.0 0.00 0.00 0.00 100 1012.0
20260507060906 67 0.0 0.0 0.00 0.00 0.00 100 1012.0
20260507060404 68 0.0 0.0 0.00 0.00 0.00 100 1011.9
20260507055904 67 0.0 0.0 0.00 0.00 0.00 100 1011.8
20260507055408 67 0.0 0.0 0.00 0.00 0.00 100 1011.8
20260507054404 66 0.0 0.0 0.00 0.00 0.00 100 1011.8
20260507053910 66 0.0 0.0 0.00 0.00 0.00 100 1011.7
20260507052404 69 0.0 0.0 0.00 0.00 0.00 100 1011.4
20260507051904 69 0.0 0.0 0.00 0.00 0.00 100 1011.2
20260507051404 69 0.0 0.0 0.00 0.00 0.00 100 1011.2
20260507050905 69 0.0 0.0 0.00 0.00 0.00 100 1010.9
20260507050405 70 0.0 0.0 0.00 0.00 0.00 100 1010.8
20260507045904 69 0.0 0.0 0.00 0.00 0.00 100 1010.8
20260507045404 69 0.0 0.0 0.00 0.00 0.00 100 1010.7
20260507044909 69 0.0 0.0 0.00 0.00 0.00 100 1010.7
20260507042905 68 0.0 0.0 0.00 0.00 0.00 100 1010.5
20260507042405 68 0.0 0.0 0.00 0.00 0.00 100 1010.5
20260507041906 68 0.0 0.0 0.00 0.00 0.00 100 1010.4
20260507041411 68 0.0 0.0 0.00 0.00 0.00 100 1010.4
20260507040404 67 0.0 0.0 0.00 0.00 0.00 100 1010.4
20260507035904 67 0.0 0.0 0.00 0.00 0.00 100 1010.3
20260507035405 67 0.0 0.0 0.00 0.00 0.00 100 1010.4
20260507034904 66 0.0 0.0 0.00 0.00 0.00 100 1010.5
20260507034409 66 0.0 0.0 0.00 0.00 0.00 100 1010.5
20260507033405 65 0.0 0.0 0.00 0.00 0.00 100 1010.2
20260507032905 65 0.0 0.0 0.00 0.00 0.00 100 1010.2
20260507032409 66 0.0 0.0 0.00 0.00 0.00 100 1010.3
20260507031409 68 0.0 0.0 0.00 0.00 0.00 100 1009.9
20260507025904 69 0.0 0.0 0.00 0.00 0.00 100 1009.4
20260507025405 70 0.0 0.0 0.00 0.00 0.00 100 1009.2
20260507024904 70 0.0 0.0 0.00 0.00 0.00 100 1009.3
20260507024405 70 0.0 0.0 0.00 0.00 0.00 100 1009.2
20260507023910 69 0.0 0.0 0.00 0.00 0.00 100 1009.3
20260507022905 69 0.0 0.0 0.00 0.00 0.00 100 1009.3
20260507022404 69 0.0 0.0 0.00 0.00 0.00 100 1009.2
20260507021904 68 0.0 0.0 0.00 0.00 0.00 100 1009.4
20260507021405 67 0.0 0.0 0.00 0.00 0.00 100 1009.3
20260507020909 67 0.0 0.0 0.00 0.00 0.00 100 1009.3
20260507015904 67 0.0 0.0 0.00 0.00 0.00 100 1009.3
20260507015404 67 0.0 0.0 0.00 0.00 0.00 100 1009.3
20260507014906 68 0.0 0.0 0.00 0.00 0.00 100 1009.3
20260507014407 68 0.0 0.0 0.00 0.00 0.00 100 1009.4
20260507013905 68 0.0 0.0 0.00 0.00 0.00 100 1009.2
20260507013405 69 0.0 0.0 0.00 0.00 0.00 100 1009.1
20260507012906 70 0.0 0.0 0.00 0.00 0.00 100 1009.1
20260507012404 71 0.0 0.0 0.00 0.00 0.00 100 1009.0
20260507011905 71 0.0 0.0 0.00 0.00 0.00 100 1009.0
20260507011405 71 0.0 0.0 0.00 0.00 0.00 100 1008.9
20260507010904 71 0.0 0.0 0.00 0.00 0.00 100 1008.9
20260507010404 71 0.0 0.0 0.00 0.00 0.00 100 1008.9
20260507005910 70 0.0 0.0 0.00 0.00 0.00 100 1008.9
20260507004907 69 0.0 0.0 0.00 0.00 0.00 100 1009.1
20260507004405 70 0.0 0.0 0.00 0.00 0.00 100 1008.9
20260507003905 70 0.0 0.0 0.00 0.00 0.00 100 1008.9
20260507003405 71 0.0 0.0 0.00 0.00 0.00 100 1008.9
20260507002905 72 0.0 0.0 0.00 0.00 0.00 100 1008.7
20260507002406 72 0.0 0.0 0.00 0.00 0.00 100 1008.6
20260507001905 71 0.0 0.0 0.00 0.00 0.00 100 1008.7
20260507001405 71 0.0 0.0 0.00 0.00 0.00 100 1008.7
20260507000909 71 0.0 0.0 0.00 0.00 0.00 100 1008.7
20260506235909 71 0.0 0.0 0.00 0.00 0.00 100 1008.7
20260506234904 71 0.0 0.0 0.00 0.00 0.00 100 1008.8
20260506234405 69 0.0 0.0 0.00 0.00 0.00 100 1008.9
20260506233904 69 0.0 0.0 0.00 0.00 0.00 100 1008.9
20260506233404 69 0.0 0.0 0.00 0.00 0.00 100 1008.9
20260506232905 68 0.0 0.0 0.00 0.00 0.00 100 1008.9
20260506232406 68 0.0 0.0 0.00 0.00 0.00 100 1009.0
20260506231906 69 0.0 0.0 0.00 0.00 0.00 100 1009.0
20260506231404 71 0.0 0.0 0.00 0.00 0.00 100 1008.8
20260506230903 71 0.0 0.0 0.00 0.00 0.00 100 1008.8
20260506230406 71 0.0 0.0 0.00 0.00 0.00 100 1008.7
20260506225911 72 0.0 0.0 0.00 0.00 0.00 100 1008.6
20260506224905 72 0.0 0.0 0.00 0.00 0.00 100 1008.7
20260506224406 72 0.0 0.0 0.00 0.00 0.00 100 1008.7
20260506223905 72 0.0 0.0 0.00 0.00 0.00 100 1008.7
20260506223405 73 0.0 0.0 0.00 0.00 0.00 100 1008.5
20260506222904 72 0.0 0.0 0.00 0.00 0.00 100 1008.5
20260506222405 72 0.0 0.0 0.00 0.00 0.00 100 1008.7
20260506221905 72 0.0 0.0 0.00 0.00 0.00 100 1008.7
20260506221409 72 0.0 0.0 0.00 0.00 0.00 100 1008.6
20260506220404 71 0.0 0.0 0.00 0.00 0.00 100 1008.7
20260506215904 71 0.0 0.0 0.00 0.00 0.00 100 1008.8
20260506215405 71 0.0 0.0 0.00 0.00 0.00 100 1008.8
20260506214905 69 0.0 0.0 0.00 0.00 0.00 100 1009.0
20260506214404 66 0.0 0.0 0.00 0.00 0.00 100 1009.1
20260506213905 67 0.0 0.0 0.00 0.00 0.00 100 1009.2
20260506213406 67 0.0 0.0 0.00 0.00 0.00 100 1009.2
20260506212905 67 0.0 0.0 0.00 0.00 0.00 100 1009.2
20260506212409 67 0.0 0.0 0.00 0.00 0.00 100 1009.2
20260506211404 68 0.0 0.0 0.00 0.00 0.00 100 1009.0
20260506210904 68 0.0 0.0 0.00 0.00 0.00 100 1009.1
20260506210404 68 0.0 0.0 0.00 0.00 0.00 100 1009.1
20260506205905 68 0.0 0.0 0.00 0.00 0.00 100 1009.1
20260506205404 68 0.0 0.0 0.00 0.00 0.00 100 1009.2
20260506204909 68 0.0 0.0 0.00 0.00 0.00 100 1009.1
20260506203905 68 0.0 0.0 0.00 0.00 0.00 100 1009.3
20260506203407 69 0.0 0.0 0.00 0.00 0.00 100 1009.2
20260506202907 69 0.0 0.0 0.00 0.00 0.00 100 1009.1
20260506202406 70 0.0 0.0 0.00 0.00 0.00 100 1009.0
20260506201904 70 0.0 0.0 0.00 0.00 0.00 100 1009.0
20260506201404 70 0.0 0.0 0.00 0.00 0.00 100 1009.0
20260506200904 70 0.0 0.0 0.00 0.00 0.00 100 1008.9
20260506200404 70 0.0 0.0 0.00 0.00 0.00 100 1009.0
20260506195904 70 0.0 0.0 0.00 0.00 0.00 100 1008.9
20260506195405 70 0.0 0.0 0.00 0.00 0.00 100 1008.9
20260506194904 70 0.0 0.0 0.00 0.00 0.00 100 1008.9
20260506194408 70 0.0 0.0 0.00 0.00 0.00 100 1008.9
20260506193405 70 0.0 0.0 0.00 0.00 0.00 100 1008.9
20260506192904 69 0.0 0.0 0.00 0.00 0.00 100 1008.9
20260506192410 70 0.0 0.0 0.00 0.00 0.00 100 1008.8
20260506191404 70 0.0 0.0 0.00 0.00 0.00 100 1008.8
20260506190905 70 0.0 0.0 0.00 0.00 0.00 100 1008.9
20260506190405 70 0.0 0.0 0.00 0.00 0.00 100 1008.9
20260506185905 70 0.0 0.0 0.00 0.00 0.00 100 1008.8
20260506185404 70 0.0 0.0 0.00 0.00 0.00 100 1008.7
20260506184904 70 0.0 0.0 0.00 0.00 0.00 100 1008.7
20260506184405 71 0.0 0.0 0.00 0.00 0.00 100 1008.7
20260506183905 71 0.0 0.0 0.00 0.00 0.00 100 1008.7
20260506183405 71 0.0 0.0 0.00 0.00 0.00 100 1008.7
20260506182904 71 0.0 0.0 0.00 0.00 0.00 100 1008.6
20260506182406 71 0.0 0.0 0.00 0.00 0.00 100 1008.4
20260506181910 72 0.0 0.0 0.00 0.00 0.00 100 1008.4
20260506180904 72 0.0 0.0 0.00 0.00 0.00 100 1008.3
20260506180404 72 0.0 0.0 0.00 0.00 0.00 100 1008.3
20260506175904 73 0.0 0.0 0.00 0.00 0.00 100 1008.2
20260506175409 73 0.0 0.0 0.00 0.00 0.00 100 1008.1
20260506174405 74 0.0 0.0 0.00 0.00 0.00 100 1008.0
20260506173904 75 0.0 0.0 0.00 0.00 0.00 100 1007.9
20260506173405 75 0.0 0.0 0.00 0.00 0.00 100 1007.8
20260506172904 76 0.0 0.0 0.00 0.00 0.00 100 1007.7
20260506172405 77 0.0 0.0 0.00 0.00 0.00 100 1007.8
20260506171904 78 0.0 0.0 0.00 0.00 0.00 100 1007.7
20260506171404 78 0.0 0.0 0.00 0.00 0.00 100 1007.7
20260506170905 79 0.0 0.0 0.00 0.00 0.00 100 1007.6
20260506170404 80 0.0 0.0 0.00 0.00 0.00 100 1007.5
20260506165910 80 0.0 0.0 0.00 0.00 0.00 100 1007.5
20260506164904 81 0.0 0.0 0.00 0.00 0.00 100 1007.4
20260506164405 82 0.0 0.0 0.00 0.00 0.00 100 1007.3
20260506163910 83 0.0 0.0 0.00 0.00 0.00 100 1007.3
20260506162410 86 0.0 0.0 0.00 0.00 0.00 100 1007.1
20260506161406 88 0.0 0.0 0.00 0.00 0.00 100 1007.0
20260506160905 90 0.0 0.0 0.00 0.00 0.00 100 1006.8
20260506160404 94 0.0 0.0 0.00 0.00 0.00 100 1006.6
20260506155905 97 0.0 0.0 0.00 0.00 0.00 100 1006.4
20260506155404 96 0.0 0.0 0.00 0.00 0.00 100 1006.5
20260506154905 94 0.0 0.0 0.00 0.00 0.00 100 1006.7
20260506154405 92 0.0 0.0 0.00 0.00 0.00 100 1006.8
20260506153909 94 0.0 0.0 0.00 0.00 0.00 100 1006.8
20260506152905 103 0.0 0.0 0.00 0.00 0.00 100 1006.2
20260506152410 104 0.0 0.0 0.00 0.00 0.00 100 1006.2
20260506151404 111 0.0 0.0 0.00 0.00 0.00 100 1005.8
20260506150906 114 0.0 0.0 0.00 0.00 0.00 100 1005.6
20260506150405 115 0.0 0.0 0.00 0.00 0.00 100 1005.6
20260506145905 115 0.0 0.0 0.00 0.00 0.00 100 1005.7
20260506145405 117 0.0 0.0 0.00 0.00 0.00 100 1005.7
20260506144905 116 0.0 0.0 0.00 0.00 0.00 100 1005.6
20260506144405 115 0.0 0.0 0.00 0.00 0.00 100 1005.7
20260506143904 115 0.0 0.0 0.00 0.00 0.00 100 1005.8
20260506143405 112 0.0 0.0 0.00 0.00 0.00 100 1006.0
20260506142904 117 0.0 0.0 0.00 0.00 0.00 100 1005.4
20260506142409 116 0.0 0.0 0.00 0.00 0.00 100 1005.8
20260506141404 118 0.0 0.0 0.00 0.00 0.00 100 1005.7
20260506140905 120 0.0 0.0 0.00 0.00 0.00 100 1005.4
20260506140404 119 0.0 0.0 0.00 0.00 0.00 100 1005.6
20260506135905 118 0.0 0.0 0.00 0.00 0.00 100 1005.6
20260506135404 119 0.0 0.0 0.00 0.00 0.00 100 1005.6
20260506134904 119 0.0 0.0 0.00 0.00 0.00 100 1005.7
20260506134405 117 0.0 0.0 0.00 0.00 0.00 100 1005.8
20260506133904 117 0.0 0.0 0.00 0.00 0.00 100 1005.8
20260506133405 117 0.0 0.0 0.00 0.00 0.00 100 1005.9
20260506132905 114 0.0 0.0 0.00 0.00 0.00 100 1006.1
20260506132405 111 0.0 0.0 0.00 0.00 0.00 100 1006.3
20260506131905 113 0.0 0.0 0.00 0.00 0.00 100 1006.2
20260506131406 112 0.0 0.0 0.00 0.00 0.00 100 1006.3
20260506130906 115 0.0 0.0 0.00 0.00 0.00 100 1006.2
20260506130405 113 0.0 0.0 0.00 0.00 0.00 100 1006.4
20260506125905 115 0.0 0.0 0.00 0.00 0.00 100 1006.1
20260506125404 116 0.0 0.0 0.00 0.00 0.00 100 1006.2
20260506124903 113 0.0 0.0 0.00 0.00 0.00 100 1006.5
20260506124409 113 0.0 0.0 0.00 0.00 0.00 100 1006.4
20260506123404 108 0.0 0.0 0.00 0.00 0.00 100 1006.9
20260506122903 109 0.0 0.0 0.00 0.00 0.00 100 1006.8
20260506122404 113 0.0 0.0 0.00 0.00 0.00 100 1006.7
20260506121904 113 0.0 0.0 0.00 0.00 0.00 100 1006.8
20260506121403 110 0.0 0.0 0.00 0.00 0.00 100 1006.9
20260506120904 114 0.0 0.0 0.00 0.00 0.00 100 1006.8
20260506120405 113 0.0 0.0 0.00 0.00 0.00 100 1006.9
20260506115905 113 0.0 0.0 0.00 0.00 0.00 100 1007.0
20260506115405 111 0.0 0.0 0.00 0.00 0.00 100 1007.1
20260506114904 106 0.0 0.0 0.00 0.00 0.00 100 1007.6
20260506114409 111 0.0 0.0 0.00 0.00 0.00 100 1007.3
20260506113405 112 0.0 0.0 0.00 0.00 0.00 100 1007.4
20260506112910 111 0.0 0.0 0.00 0.00 0.00 100 1007.4
20260506111905 111 0.0 0.0 0.00 0.00 0.00 100 1007.6
20260506111410 110 0.0 0.0 0.00 0.00 0.00 100 1007.7
20260506110406 111 0.0 0.0 0.00 0.00 0.00 100 1007.6
20260506105905 109 0.0 0.0 0.00 0.00 0.00 100 1007.8
20260506105405 107 0.0 0.0 0.00 0.00 0.00 100 1008.0
20260506104905 103 0.0 0.0 0.00 0.00 0.00 100 1008.2
20260506104404 99 0.0 0.0 0.00 0.00 0.00 100 1008.4
20260506103905 97 0.0 0.0 0.00 0.00 0.00 100 1008.7
20260506103405 94 0.0 0.0 0.00 0.00 0.00 100 1008.6
20260506102904 90 0.0 0.0 0.00 0.00 0.00 100 1008.9
20260506102410 88 0.0 0.0 0.00 0.00 0.00 100 1009.2
20260506100907 83 0.0 0.0 0.00 0.00 0.00 100 1009.5
20260506100406 85 0.0 0.0 0.00 0.00 0.00 100 1009.6
20260506095905 84 0.0 0.0 0.00 0.00 0.00 100 1009.7
20260506095405 83 0.0 0.0 0.00 0.00 0.00 100 1009.8
20260506094907 82 0.0 0.0 0.00 0.00 0.00 100 1009.8
20260506094411 82 0.0 0.0 0.00 0.00 0.00 100 1009.8